| time (UTC) | temp C | wind direction | speed KPH | gust KPH | rain 1hr cm | rain 24hr cm | rain mn cm | humidity % | barometer mb |
| 20260510225518 | 19 | 270 | 1.6 | 4.8 | 0.00 | 0.03 | 0.03 | 69 | 1014.9 |
| 20260510225018 | 19 | 0.0 | 3.2 | 0.00 | 0.03 | 0.03 | 70 | 1015.0 | |
| 20260510224517 | 19 | 248 | 1.6 | 4.8 | 0.00 | 0.03 | 0.03 | 70 | 1014.9 |
| 20260510224017 | 19 | 248 | 1.6 | 3.2 | 0.00 | 0.03 | 0.03 | 70 | 1014.9 |
| 20260510223517 | 19 | 0.0 | 1.6 | 0.00 | 0.03 | 0.03 | 70 | 1014.6 | |
| 20260510223018 | 19 | 0.0 | 3.2 | 0.00 | 0.03 | 0.03 | 70 | 1014.4 | |
| 20260510222517 | 20 | 0.0 | 3.2 | 0.00 | 0.03 | 0.03 | 70 | 1014.4 | |
| 20260510222018 | 20 | 0.0 | 3.2 | 0.00 | 0.03 | 0.03 | 70 | 1014.1 | |
| 20260510221518 | 20 | 338 | 1.6 | 3.2 | 0.00 | 0.03 | 0.03 | 70 | 1014.2 |
| 20260510221018 | 20 | 0.0 | 3.2 | 0.00 | 0.03 | 0.03 | 70 | 1014.3 | |
| 20260510220518 | 20 | 0.0 | 3.2 | 0.00 | 0.03 | 0.03 | 70 | 1014.2 | |
| 20260510220151 | 20 | 0.0 | 1.6 | 0.00 | 0.03 | 0.03 | 69 | 1014.3 | |
| 20260510220037 | 20 | 0.0 | 1.6 | 0.00 | 0.03 | 0.03 | 69 | 1014.3 | |
| 20260510215518 | 20 | 0.0 | 1.6 | 0.00 | 0.03 | 0.03 | 69 | 1014.3 | |
| 20260510215018 | 20 | 23 | 1.6 | 4.8 | 0.00 | 0.03 | 0.03 | 68 | 1014.2 |
| 20260510214518 | 20 | 0.0 | 3.2 | 0.00 | 0.03 | 0.03 | 68 | 1014.3 | |
| 20260510214017 | 21 | 0.0 | 3.2 | 0.00 | 0.03 | 0.03 | 67 | 1014.2 | |
| 20260510213518 | 21 | 0 | 1.6 | 3.2 | 0.00 | 0.03 | 0.03 | 65 | 1014.2 |
| 20260510213018 | 21 | 0 | 1.6 | 4.8 | 0.00 | 0.03 | 0.03 | 65 | 1014.1 |
| 20260510212518 | 21 | 338 | 3.2 | 9.7 | 0.00 | 0.03 | 0.03 | 64 | 1014.1 |
| 20260510212018 | 21 | 338 | 3.2 | 8.0 | 0.00 | 0.03 | 0.03 | 63 | 1014.0 |
| 20260510211517 | 21 | 338 | 4.8 | 14.5 | 0.00 | 0.03 | 0.03 | 61 | 1014.0 |
| 20260510211017 | 22 | 338 | 4.8 | 14.5 | 0.00 | 0.03 | 0.03 | 61 | 1013.7 |
| 20260510210517 | 22 | 338 | 4.8 | 11.3 | 0.00 | 0.03 | 0.03 | 60 | 1013.6 |
| 20260510210018 | 22 | 0 | 3.2 | 9.7 | 0.00 | 0.03 | 0.03 | 58 | 1013.6 |
| 20260510205517 | 22 | 338 | 1.6 | 4.8 | 0.00 | 0.03 | 0.03 | 58 | 1013.5 |
| 20260510205017 | 23 | 0 | 3.2 | 9.7 | 0.00 | 0.03 | 0.03 | 56 | 1013.5 |
| 20260510204517 | 23 | 315 | 1.6 | 6.4 | 0.00 | 0.03 | 0.03 | 57 | 1013.5 |
| 20260510204018 | 23 | 315 | 4.8 | 9.7 | 0.00 | 0.03 | 0.03 | 55 | 1013.3 |
| 20260510203518 | 23 | 315 | 3.2 | 9.7 | 0.00 | 0.03 | 0.03 | 56 | 1013.3 |
| 20260510203018 | 23 | 315 | 1.6 | 8.0 | 0.00 | 0.03 | 0.03 | 57 | 1013.3 |
| 20260510202517 | 23 | 315 | 1.6 | 3.2 | 0.00 | 0.03 | 0.03 | 57 | 1013.2 |
| 20260510202018 | 23 | 315 | 1.6 | 4.8 | 0.00 | 0.03 | 0.03 | 58 | 1013.3 |
| 20260510201518 | 23 | 23 | 1.6 | 6.4 | 0.00 | 0.03 | 0.03 | 58 | 1013.3 |
| 20260510201017 | 23 | 338 | 1.6 | 4.8 | 0.00 | 0.03 | 0.03 | 58 | 1013.4 |
| 20260510200517 | 23 | 315 | 1.6 | 6.4 | 0.00 | 0.03 | 0.03 | 57 | 1013.5 |
| 20260510200017 | 23 | 315 | 3.2 | 9.7 | 0.00 | 0.03 | 0.03 | 57 | 1013.5 |
| 20260510195517 | 23 | 315 | 3.2 | 9.7 | 0.03 | 0.03 | 0.03 | 57 | 1013.4 |
| 20260510195017 | 23 | 338 | 1.6 | 6.4 | 0.03 | 0.03 | 0.03 | 57 | 1013.5 |
| 20260510194517 | 24 | 315 | 1.6 | 6.4 | 0.03 | 0.03 | 0.03 | 57 | 1013.5 |
| 20260510194452 | 24 | 315 | 1.6 | 6.4 | 0.03 | 0.03 | 0.03 | 56 | 1013.5 |
| 20260510194018 | 24 | 315 | 1.6 | 6.4 | 0.03 | 0.03 | 0.03 | 56 | 1013.5 |
| 20260510193517 | 24 | 338 | 1.6 | 3.2 | 0.03 | 0.03 | 0.03 | 56 | 1013.6 |
| 20260510193017 | 24 | 315 | 1.6 | 6.4 | 0.03 | 0.03 | 0.03 | 54 | 1013.7 |
| 20260510192517 | 24 | 338 | 3.2 | 6.4 | 0.03 | 0.03 | 0.03 | 55 | 1013.7 |
| 20260510192017 | 23 | 315 | 3.2 | 11.3 | 0.03 | 0.03 | 0.03 | 55 | 1013.7 |
| 20260510191517 | 23 | 315 | 4.8 | 11.3 | 0.03 | 0.03 | 0.03 | 54 | 1013.8 |
| 20260510191017 | 23 | 315 | 4.8 | 12.9 | 0.03 | 0.03 | 0.03 | 53 | 1013.9 |
| 20260510190517 | 24 | 315 | 6.4 | 12.9 | 0.03 | 0.03 | 0.03 | 56 | 1013.8 |
| 20260510190017 | 23 | 315 | 1.6 | 8.0 | 0.03 | 0.03 | 0.03 | 56 | 1013.8 |
| 20260510185517 | 23 | 270 | 1.6 | 11.3 | 0.00 | 0.00 | 0.00 | 56 | 1013.8 |
| 20260510185017 | 23 | 315 | 3.2 | 8.0 | 0.00 | 0.00 | 0.00 | 56 | 1013.8 |
| 20260510184517 | 23 | 338 | 3.2 | 6.4 | 0.00 | 0.00 | 0.00 | 56 | 1013.9 |
| 20260510184017 | 23 | 315 | 1.6 | 4.8 | 0.00 | 0.00 | 0.00 | 57 | 1013.8 |
| 20260510183517 | 23 | 315 | 3.2 | 9.7 | 0.00 | 0.00 | 0.00 | 57 | 1013.8 |
| 20260510183018 | 23 | 338 | 4.8 | 9.7 | 0.00 | 0.00 | 0.00 | 56 | 1013.7 |
| 20260510182517 | 23 | 315 | 3.2 | 8.0 | 0.00 | 0.00 | 0.00 | 56 | 1013.8 |
| 20260510182017 | 23 | 338 | 3.2 | 11.3 | 0.00 | 0.00 | 0.00 | 57 | 1013.7 |
| 20260510181517 | 23 | 315 | 3.2 | 8.0 | 0.00 | 0.00 | 0.00 | 58 | 1013.7 |
| 20260510181018 | 23 | 315 | 4.8 | 9.7 | 0.00 | 0.00 | 0.00 | 61 | 1013.7 |
| 20260510180517 | 23 | 0 | 1.6 | 6.4 | 0.00 | 0.00 | 0.00 | 63 | 1013.7 |
| 20260510180017 | 23 | 0.0 | 1.6 | 0.00 | 0.00 | 0.00 | 62 | 1013.8 | |
| 20260510175517 | 23 | 338 | 1.6 | 4.8 | 0.00 | 0.00 | 0.00 | 63 | 1013.6 |
| 20260510175017 | 23 | 23 | 1.6 | 6.4 | 0.00 | 0.00 | 0.00 | 64 | 1013.7 |
| 20260510174517 | 23 | 248 | 3.2 | 9.7 | 0.00 | 0.00 | 0.00 | 65 | 1013.7 |
| 20260510174017 | 23 | 248 | 3.2 | 8.0 | 0.00 | 0.00 | 0.00 | 64 | 1013.7 |
| 20260510173517 | 23 | 270 | 1.6 | 4.8 | 0.00 | 0.00 | 0.00 | 65 | 1013.7 |
| 20260510173017 | 23 | 0.0 | 3.2 | 0.00 | 0.00 | 0.00 | 69 | 1013.7 | |
| 20260510172517 | 22 | 270 | 1.6 | 6.4 | 0.00 | 0.00 | 0.00 | 68 | 1013.7 |
| 20260510172017 | 22 | 0.0 | 3.2 | 0.00 | 0.00 | 0.00 | 68 | 1013.6 | |
| 20260510171517 | 22 | 315 | 1.6 | 4.8 | 0.00 | 0.00 | 0.00 | 68 | 1013.5 |
| 20260510171017 | 22 | 270 | 1.6 | 9.7 | 0.00 | 0.00 | 0.00 | 67 | 1013.5 |
| 20260510170518 | 22 | 248 | 1.6 | 6.4 | 0.00 | 0.00 | 0.00 | 69 | 1013.6 |
| 20260510170017 | 22 | 248 | 1.6 | 8.0 | 0.00 | 0.00 | 0.00 | 70 | 1013.8 |
| 20260510165517 | 22 | 248 | 1.6 | 12.9 | 0.00 | 0.00 | 0.00 | 71 | 1013.9 |
| 20260510165017 | 22 | 0.0 | 6.4 | 0.00 | 0.00 | 0.00 | 71 | 1014.0 | |
| 20260510164517 | 21 | 0.0 | 1.6 | 0.00 | 0.00 | 0.00 | 72 | 1013.9 | |
| 20260510164017 | 21 | 0.0 | 3.2 | 0.00 | 0.00 | 0.00 | 74 | 1014.0 | |
| 20260510163517 | 21 | 315 | 1.6 | 8.0 | 0.00 | 0.00 | 0.00 | 73 | 1014.0 |
| 20260510163017 | 20 | 0.0 | 3.2 | 0.00 | 0.00 | 0.00 | 74 | 1014.0 | |
| 20260510162517 | 20 | 0.0 | 4.8 | 0.00 | 0.00 | 0.00 | 75 | 1013.9 | |
| 20260510162017 | 20 | 0.0 | 3.2 | 0.00 | 0.00 | 0.00 | 76 | 1014.1 | |
| 20260510161517 | 20 | 90 | 1.6 | 3.2 | 0.00 | 0.00 | 0.00 | 77 | 1014.0 |
| 20260510161017 | 20 | 113 | 1.6 | 6.4 | 0.00 | 0.00 | 0.00 | 77 | 1013.9 |
| 20260510160517 | 19 | 0.0 | 3.2 | 0.00 | 0.00 | 0.00 | 79 | 1014.0 | |
| 20260510160149 | 19 | 0.0 | 3.2 | 0.00 | 0.00 | 0.00 | 80 | 1014.1 | |
| 20260510160036 | 18 | 0.0 | 3.2 | 0.00 | 0.00 | 0.00 | 80 | 1014.2 | |
| 20260510155517 | 18 | 0.0 | 3.2 | 0.00 | 0.00 | 0.00 | 80 | 1014.2 | |
| 20260510155017 | 18 | 338 | 1.6 | 3.2 | 0.00 | 0.00 | 0.00 | 81 | 1014.5 |
| 20260510154517 | 18 | 0.0 | 3.2 | 0.00 | 0.00 | 0.00 | 82 | 1014.4 | |
| 20260510154017 | 18 | 248 | 1.6 | 6.4 | 0.00 | 0.00 | 0.00 | 83 | 1014.3 |
| 20260510153517 | 17 | 0.0 | 6.4 | 0.00 | 0.00 | 0.00 | 83 | 1014.2 | |
| 20260510153344 | 17 | 0.0 | 6.4 | 0.00 | 0.00 | 0.00 | 84 | 1014.4 | |
| 20260510153017 | 17 | 0.0 | 6.4 | 0.00 | 0.00 | 0.00 | 84 | 1014.4 | |
| 20260510152517 | 17 | 270 | 1.6 | 3.2 | 0.00 | 0.00 | 0.00 | 84 | 1014.5 |
| 20260510152017 | 17 | 248 | 1.6 | 6.4 | 0.00 | 0.00 | 0.00 | 86 | 1014.5 |
| 20260510151517 | 16 | 0.0 | 1.6 | 0.00 | 0.00 | 0.00 | 89 | 1014.6 | |
| 20260510151017 | 16 | 0.0 | 3.2 | 0.00 | 0.00 | 0.00 | 89 | 1014.5 | |
| 20260510150517 | 16 | 248 | 1.6 | 8.0 | 0.00 | 0.00 | 0.00 | 89 | 1014.4 |
| 20260510150017 | 16 | 0.0 | 4.8 | 0.00 | 0.00 | 0.00 | 92 | 1014.3 | |
| 20260510145517 | 15 | 0.0 | 1.6 | 0.00 | 0.00 | 0.00 | 93 | 1014.4 | |
| 20260510145017 | 15 | 0.0 | 3.2 | 0.00 | 0.00 | 0.00 | 95 | 1014.2 | |
| 20260510144517 | 15 | 0.0 | 3.2 | 0.00 | 0.00 | 0.00 | 96 | 1014.2 | |
| 20260510144017 | 14 | 0.0 | 1.6 | 0.00 | 0.00 | 0.00 | 95 | 1014.3 | |
| 20260510143517 | 14 | 0.0 | 3.2 | 0.00 | 0.00 | 0.00 | 96 | 1014.3 | |
| 20260510143017 | 14 | 0.0 | 3.2 | 0.00 | 0.00 | 0.00 | 96 | 1014.4 | |
| 20260510142517 | 13 | 0.0 | 1.6 | 0.00 | 0.00 | 0.00 | 96 | 1014.1 | |
| 20260510142017 | 13 | 0.0 | 4.8 | 0.00 | 0.00 | 0.00 | 96 | 1014.1 | |
| 20260510141517 | 13 | 248 | 1.6 | 4.8 | 0.00 | 0.00 | 0.00 | 96 | 1014.1 |
| 20260510141017 | 13 | 0.0 | 4.8 | 0.00 | 0.00 | 0.00 | 96 | 1014.1 | |
| 20260510140517 | 13 | 0.0 | 3.2 | 0.00 | 0.00 | 0.00 | 96 | 1014.1 | |
| 20260510140017 | 13 | 0.0 | 0.0 | 0.00 | 0.00 | 0.00 | 97 | 1014.1 | |
| 20260510135517 | 13 | 0.0 | 0.0 | 0.00 | 0.00 | 0.00 | 97 | 1014.1 | |
| 20260510135017 | 12 | 0.0 | 0.0 | 0.00 | 0.00 | 0.00 | 97 | 1014.2 | |
| 20260510134517 | 12 | 0.0 | 0.0 | 0.00 | 0.00 | 0.00 | 97 | 1014.2 | |
| 20260510134017 | 12 | 0.0 | 0.0 | 0.00 | 0.00 | 0.00 | 97 | 1014.2 | |
| 20260510133517 | 12 | 0.0 | 0.0 | 0.00 | 0.00 | 0.00 | 97 | 1014.3 | |
| 20260510133017 | 12 | 0.0 | 1.6 | 0.00 | 0.00 | 0.00 | 97 | 1014.3 | |
| 20260510132517 | 12 | 0.0 | 1.6 | 0.00 | 0.00 | 0.00 | 97 | 1014.4 | |
| 20260510132017 | 12 | 0.0 | 1.6 | 0.00 | 0.00 | 0.00 | 97 | 1014.4 | |
| 20260510131517 | 12 | 0.0 | 0.0 | 0.00 | 0.00 | 0.00 | 97 | 1014.5 | |
| 20260510131017 | 12 | 0.0 | 1.6 | 0.00 | 0.00 | 0.00 | 97 | 1014.4 | |
| 20260510130517 | 12 | 0.0 | 1.6 | 0.00 | 0.00 | 0.00 | 97 | 1014.3 | |
| 20260510130017 | 12 | 0.0 | 3.2 | 0.00 | 0.00 | 0.00 | 96 | 1014.1 | |
| 20260510125517 | 12 | 0.0 | 0.0 | 0.00 | 0.00 | 0.00 | 97 | 1013.8 | |
| 20260510125017 | 12 | 0.0 | 0.0 | 0.00 | 0.00 | 0.00 | 97 | 1013.7 | |
| 20260510124517 | 12 | 0.0 | 0.0 | 0.00 | 0.00 | 0.00 | 97 | 1013.9 | |
| 20260510124017 | 11 | 0.0 | 0.0 | 0.00 | 0.00 | 0.00 | 97 | 1013.7 | |
| 20260510123517 | 11 | 0.0 | 1.6 | 0.00 | 0.00 | 0.00 | 97 | 1013.8 | |
| 20260510123017 | 11 | 0.0 | 0.0 | 0.00 | 0.00 | 0.00 | 97 | 1013.7 | |
| 20260510122517 | 11 | 0.0 | 0.0 | 0.00 | 0.00 | 0.00 | 97 | 1013.8 | |
| 20260510122017 | 11 | 0.0 | 0.0 | 0.00 | 0.00 | 0.00 | 97 | 1013.8 | |
| 20260510121517 | 11 | 0.0 | 0.0 | 0.00 | 0.00 | 0.00 | 97 | 1013.7 | |
| 20260510121017 | 11 | 0.0 | 0.0 | 0.00 | 0.00 | 0.00 | 97 | 1013.6 | |
| 20260510120517 | 11 | 0.0 | 1.6 | 0.00 | 0.00 | 0.00 | 97 | 1013.6 | |
| 20260510120017 | 11 | 0.0 | 0.0 | 0.00 | 0.00 | 0.00 | 97 | 1013.5 | |
| 20260510115517 | 11 | 0.0 | 0.0 | 0.00 | 0.00 | 0.00 | 97 | 1013.5 | |
| 20260510115017 | 11 | 0.0 | 0.0 | 0.00 | 0.00 | 0.00 | 97 | 1013.5 | |
| 20260510114516 | 11 | 0.0 | 0.0 | 0.00 | 0.00 | 0.00 | 97 | 1013.5 | |
| 20260510114017 | 11 | 0.0 | 0.0 | 0.00 | 0.00 | 0.00 | 97 | 1013.5 | |
| 20260510113517 | 11 | 0.0 | 0.0 | 0.00 | 0.00 | 0.00 | 97 | 1013.4 | |
| 20260510113017 | 11 | 0.0 | 0.0 | 0.00 | 0.00 | 0.00 | 97 | 1013.5 | |
| 20260510112517 | 11 | 0.0 | 0.0 | 0.00 | 0.00 | 0.00 | 97 | 1013.3 | |
| 20260510112017 | 11 | 0.0 | 0.0 | 0.00 | 0.00 | 0.00 | 97 | 1013.3 | |
| 20260510111517 | 11 | 0.0 | 0.0 | 0.00 | 0.00 | 0.00 | 97 | 1013.2 | |
| 20260510111017 | 11 | 0.0 | 0.0 | 0.00 | 0.00 | 0.00 | 97 | 1013.3 | |
| 20260510110517 | 10 | 0.0 | 0.0 | 0.00 | 0.00 | 0.00 | 97 | 1013.2 | |
| 20260510110016 | 10 | 0.0 | 0.0 | 0.00 | 0.00 | 0.00 | 97 | 1013.1 | |
| 20260510105517 | 10 | 0.0 | 0.0 | 0.00 | 0.00 | 0.00 | 97 | 1013.1 | |
| 20260510105102 | 10 | 0.0 | 0.0 | 0.00 | 0.00 | 0.00 | 97 | 1012.9 | |
| 20260510105017 | 10 | 0.0 | 0.0 | 0.00 | 0.00 | 0.00 | 97 | 1012.9 | |
| 20260510104517 | 10 | 0.0 | 0.0 | 0.00 | 0.00 | 0.00 | 97 | 1012.8 | |
| 20260510104016 | 10 | 0.0 | 0.0 | 0.00 | 0.00 | 0.00 | 97 | 1012.7 | |
| 20260510103517 | 10 | 0.0 | 0.0 | 0.00 | 0.00 | 0.00 | 97 | 1012.8 | |
| 20260510103017 | 10 | 0.0 | 0.0 | 0.00 | 0.00 | 0.00 | 97 | 1012.8 | |
| 20260510102517 | 10 | 0.0 | 0.0 | 0.00 | 0.00 | 0.00 | 97 | 1012.7 | |
| 20260510102016 | 10 | 0.0 | 0.0 | 0.00 | 0.00 | 0.00 | 96 | 1012.7 | |
| 20260510101516 | 10 | 0.0 | 0.0 | 0.00 | 0.00 | 0.00 | 96 | 1012.7 | |
| 20260510101016 | 10 | 0.0 | 0.0 | 0.00 | 0.00 | 0.00 | 96 | 1012.8 | |
| 20260510100517 | 10 | 0.0 | 0.0 | 0.00 | 0.00 | 0.00 | 96 | 1012.8 | |
| 20260510100150 | 10 | 0.0 | 1.6 | 0.00 | 0.00 | 0.00 | 96 | 1012.7 | |
| 20260510100037 | 10 | 0.0 | 0.0 | 0.00 | 0.00 | 0.00 | 96 | 1012.8 | |
| 20260510095517 | 10 | 0.0 | 0.0 | 0.00 | 0.00 | 0.00 | 96 | 1012.8 | |
| 20260510095017 | 10 | 0.0 | 0.0 | 0.00 | 0.00 | 0.00 | 96 | 1012.8 | |
| 20260510094517 | 10 | 0.0 | 1.6 | 0.00 | 0.00 | 0.00 | 96 | 1012.7 | |
| 20260510094017 | 10 | 0.0 | 1.6 | 0.00 | 0.00 | 0.00 | 96 | 1012.7 | |
| 20260510093517 | 10 | 0.0 | 0.0 | 0.00 | 0.00 | 0.00 | 96 | 1012.9 | |
| 20260510093017 | 10 | 0.0 | 1.6 | 0.00 | 0.00 | 0.00 | 96 | 1012.7 | |
| 20260510092517 | 10 | 0.0 | 1.6 | 0.00 | 0.00 | 0.00 | 96 | 1012.8 | |
| 20260510092017 | 10 | 0.0 | 4.8 | 0.00 | 0.00 | 0.00 | 96 | 1012.8 | |
| 20260510091517 | 10 | 23 | 1.6 | 6.4 | 0.00 | 0.00 | 0.00 | 96 | 1013.1 |
| 20260510091017 | 10 | 0 | 1.6 | 4.8 | 0.00 | 0.00 | 0.00 | 96 | 1012.8 |
| 20260510090517 | 10 | 0.0 | 1.6 | 0.00 | 0.00 | 0.00 | 96 | 1012.9 | |
| 20260510090016 | 10 | 0.0 | 3.2 | 0.00 | 0.00 | 0.00 | 96 | 1012.8 | |
| 20260510085516 | 10 | 0.0 | 3.2 | 0.00 | 0.00 | 0.00 | 96 | 1012.8 | |
| 20260510085016 | 10 | 0.0 | 4.8 | 0.00 | 0.00 | 0.00 | 96 | 1012.8 | |
| 20260510084516 | 10 | 68 | 1.6 | 4.8 | 0.00 | 0.00 | 0.00 | 96 | 1012.6 |
| 20260510084016 | 10 | 0.0 | 3.2 | 0.00 | 0.00 | 0.00 | 96 | 1012.8 | |
| 20260510083517 | 10 | 0.0 | 0.0 | 0.00 | 0.00 | 0.00 | 96 | 1012.3 | |
| 20260510083017 | 10 | 0.0 | 0.0 | 0.00 | 0.00 | 0.00 | 96 | 1012.3 | |
| 20260510082516 | 10 | 0.0 | 1.6 | 0.00 | 0.00 | 0.00 | 96 | 1012.1 | |
| 20260510082016 | 10 | 0.0 | 1.6 | 0.00 | 0.00 | 0.00 | 96 | 1012.2 | |
| 20260510081516 | 10 | 0.0 | 0.0 | 0.00 | 0.00 | 0.00 | 96 | 1012.3 | |
| 20260510081016 | 10 | 0.0 | 0.0 | 0.00 | 0.00 | 0.00 | 96 | 1012.1 | |
| 20260510080516 | 10 | 0.0 | 0.0 | 0.00 | 0.00 | 0.00 | 96 | 1012.2 | |
| 20260510080017 | 10 | 0.0 | 0.0 | 0.00 | 0.00 | 0.00 | 96 | 1012.1 | |
| 20260510075516 | 9 | 0.0 | 0.0 | 0.00 | 0.00 | 0.00 | 96 | 1012.1 | |
| 20260510075016 | 9 | 0.0 | 0.0 | 0.00 | 0.00 | 0.00 | 96 | 1011.9 | |
| 20260510074516 | 9 | 0.0 | 0.0 | 0.00 | 0.00 | 0.00 | 96 | 1012.1 | |
| 20260510074016 | 9 | 0.0 | 0.0 | 0.00 | 0.00 | 0.00 | 96 | 1012.1 | |
| 20260510073516 | 9 | 0.0 | 0.0 | 0.00 | 0.00 | 0.00 | 96 | 1012.0 | |
| 20260510073016 | 9 | 0.0 | 0.0 | 0.00 | 0.00 | 0.00 | 96 | 1012.0 | |
| 20260510072516 | 9 | 0.0 | 0.0 | 0.00 | 0.00 | 0.00 | 96 | 1012.1 | |
| 20260510072016 | 8 | 0.0 | 0.0 | 0.00 | 0.00 | 0.00 | 96 | 1011.9 | |
| 20260510071516 | 8 | 0.0 | 0.0 | 0.00 | 0.00 | 0.00 | 96 | 1012.0 | |
| 20260510071226 | 8 | 0.0 | 0.0 | 0.00 | 0.00 | 0.00 | 96 | 1012.0 | |
| 20260510071016 | 8 | 0.0 | 0.0 | 0.00 | 0.00 | 0.00 | 96 | 1012.0 | |
| 20260510070517 | 8 | 0.0 | 1.6 | 0.00 | 0.00 | 0.00 | 96 | 1012.0 | |
| 20260510070016 | 8 | 0.0 | 1.6 | 0.00 | 0.00 | 0.00 | 96 | 1011.9 | |
| 20260510065807 | 8 | 0.0 | 1.6 | 0.00 | 0.00 | 0.00 | 96 | 1011.8 | |
| 20260510065516 | 8 | 0.0 | 1.6 | 0.00 | 0.00 | 0.00 | 96 | 1011.8 | |
| 20260510065158 | 8 | 0.0 | 0.0 | 0.00 | 0.00 | 0.00 | 96 | 1011.6 | |
| 20260510065016 | 8 | 0.0 | 0.0 | 0.00 | 0.00 | 0.00 | 96 | 1011.6 | |
| 20260510064725 | 8 | 0.0 | 0.0 | 0.00 | 0.00 | 0.00 | 96 | 1011.5 | |
| 20260510064516 | 8 | 0.0 | 0.0 | 0.00 | 0.00 | 0.00 | 96 | 1011.5 | |
| 20260510064205 | 8 | 0.0 | 0.0 | 0.00 | 0.00 | 0.00 | 96 | 1011.6 | |
| 20260510064016 | 8 | 0.0 | 0.0 | 0.00 | 0.00 | 0.00 | 96 | 1011.6 | |
| 20260510063705 | 8 | 0.0 | 0.0 | 0.00 | 0.00 | 0.00 | 95 | 1011.5 | |
| 20260510063516 | 8 | 0.0 | 0.0 | 0.00 | 0.00 | 0.00 | 95 | 1011.5 | |
| 20260510063201 | 8 | 0.0 | 0.0 | 0.00 | 0.00 | 0.00 | 95 | 1011.5 | |
| 20260510063016 | 8 | 0.0 | 0.0 | 0.00 | 0.00 | 0.00 | 95 | 1011.5 | |
| 20260510062729 | 8 | 0.0 | 0.0 | 0.00 | 0.00 | 0.00 | 95 | 1011.7 | |
| 20260510062517 | 8 | 0.0 | 0.0 | 0.00 | 0.00 | 0.00 | 95 | 1011.7 | |
| 20260510062144 | 8 | 0.0 | 0.0 | 0.00 | 0.00 | 0.00 | 95 | 1011.6 | |
| 20260510062016 | 8 | 0.0 | 0.0 | 0.00 | 0.00 | 0.00 | 95 | 1011.6 | |
| 20260510061516 | 8 | 0.0 | 0.0 | 0.00 | 0.00 | 0.00 | 95 | 1011.6 | |
| 20260510061207 | 8 | 0.0 | 0.0 | 0.00 | 0.00 | 0.00 | 95 | 1011.7 | |
| 20260510061016 | 8 | 0.0 | 0.0 | 0.00 | 0.00 | 0.00 | 95 | 1011.7 | |
| 20260510060654 | 8 | 0.0 | 0.0 | 0.00 | 0.00 | 0.00 | 95 | 1011.6 | |
| 20260510060516 | 8 | 0.0 | 0.0 | 0.00 | 0.00 | 0.00 | 95 | 1011.6 | |
| 20260510060154 | 8 | 0.0 | 0.0 | 0.00 | 0.00 | 0.00 | 95 | 1011.7 | |
| 20260510060016 | 8 | 0.0 | 0.0 | 0.00 | 0.00 | 0.00 | 95 | 1011.7 | |
| 20260510055730 | 9 | 0.0 | 0.0 | 0.00 | 0.00 | 0.00 | 95 | 1011.6 | |
| 20260510055516 | 9 | 0.0 | 0.0 | 0.00 | 0.00 | 0.00 | 95 | 1011.6 | |
| 20260510055200 | 9 | 0.0 | 0.0 | 0.00 | 0.00 | 0.00 | 95 | 1011.7 | |
| 20260510055016 | 9 | 0.0 | 0.0 | 0.00 | 0.00 | 0.00 | 95 | 1011.7 | |
| 20260510054651 | 9 | 0.0 | 0.0 | 0.00 | 0.00 | 0.00 | 95 | 1011.8 | |
| 20260510054516 | 9 | 0.0 | 0.0 | 0.00 | 0.00 | 0.00 | 95 | 1011.8 | |
| 20260510054016 | 9 | 0.0 | 0.0 | 0.00 | 0.00 | 0.00 | 95 | 1011.8 | |
| 20260510053652 | 9 | 0.0 | 0.0 | 0.00 | 0.00 | 0.00 | 95 | 1011.8 | |
| 20260510053516 | 9 | 0.0 | 0.0 | 0.00 | 0.00 | 0.00 | 95 | 1011.8 | |
| 20260510053203 | 9 | 0.0 | 0.0 | 0.00 | 0.00 | 0.00 | 95 | 1011.6 | |
| 20260510053016 | 9 | 0.0 | 0.0 | 0.00 | 0.00 | 0.00 | 95 | 1011.6 | |
| 20260510052516 | 9 | 0.0 | 0.0 | 0.00 | 0.00 | 0.00 | 95 | 1011.6 | |
| 20260510052016 | 9 | 0.0 | 0.0 | 0.00 | 0.00 | 0.00 | 95 | 1011.8 | |
| 20260510051516 | 9 | 0.0 | 0.0 | 0.00 | 0.00 | 0.00 | 95 | 1011.9 | |
| 20260510051016 | 9 | 0.0 | 0.0 | 0.00 | 0.00 | 0.00 | 95 | 1011.9 | |
| 20260510050516 | 9 | 0.0 | 0.0 | 0.00 | 0.00 | 0.00 | 95 | 1011.8 | |
| 20260510050016 | 9 | 0.0 | 0.0 | 0.00 | 0.00 | 0.00 | 95 | 1011.9 | |
| 20260510045516 | 9 | 0.0 | 0.0 | 0.00 | 0.00 | 0.00 | 95 | 1011.9 | |
| 20260510045016 | 9 | 0.0 | 0.0 | 0.00 | 0.00 | 0.00 | 95 | 1011.9 | |
| 20260510044516 | 9 | 0.0 | 0.0 | 0.00 | 0.00 | 0.00 | 95 | 1012.0 | |
| 20260510044016 | 9 | 0.0 | 0.0 | 0.00 | 0.00 | 0.00 | 95 | 1012.1 | |
| 20260510043621 | 9 | 0.0 | 0.0 | 0.00 | 0.00 | 0.00 | 95 | 1012.0 | |
| 20260510043516 | 9 | 0.0 | 0.0 | 0.00 | 0.00 | 0.00 | 95 | 1012.0 | |
| 20260510043016 | 8 | 0.0 | 0.0 | 0.00 | 0.00 | 0.00 | 95 | 1012.1 | |
| 20260510042516 | 8 | 0.0 | 0.0 | 0.00 | 0.00 | 0.00 | 95 | 1012.1 | |
| 20260510042016 | 8 | 0.0 | 0.0 | 0.00 | 0.00 | 0.00 | 95 | 1012.0 | |
| 20260510041516 | 8 | 0.0 | 0.0 | 0.00 | 0.00 | 0.00 | 95 | 1012.1 | |
| 20260510041016 | 8 | 0.0 | 0.0 | 0.00 | 0.00 | 0.00 | 95 | 1012.2 | |
| 20260510040516 | 8 | 0.0 | 0.0 | 0.00 | 0.00 | 0.00 | 95 | 1012.2 | |
| 20260510040151 | 8 | 0.0 | 0.0 | 0.00 | 0.00 | 0.00 | 95 | 1012.1 | |
| 20260510040035 | 8 | 0.0 | 0.0 | 0.00 | 0.00 | 0.00 | 95 | 1012.0 | |
| 20260510035516 | 8 | 0.0 | 0.0 | 0.00 | 0.00 | 0.00 | 95 | 1012.0 | |
| 20260510035016 | 8 | 0.0 | 0.0 | 0.00 | 0.00 | 0.00 | 95 | 1011.9 | |
| 20260510034706 | 8 | 0.0 | 0.0 | 0.00 | 0.00 | 0.00 | 95 | 1011.9 | |
| 20260510034516 | 8 | 0.0 | 0.0 | 0.00 | 0.00 | 0.00 | 95 | 1011.9 | |
| 20260510034016 | 8 | 0.0 | 0.0 | 0.00 | 0.00 | 0.00 | 95 | 1011.9 | |
| 20260510033516 | 8 | 0.0 | 0.0 | 0.00 | 0.00 | 0.00 | 95 | 1011.8 | |
| 20260510033016 | 8 | 0.0 | 0.0 | 0.00 | 0.00 | 0.00 | 95 | 1011.7 | |
| 20260510032516 | 8 | 0.0 | 0.0 | 0.00 | 0.00 | 0.00 | 94 | 1011.7 | |
| 20260510032016 | 8 | 0.0 | 0.0 | 0.00 | 0.00 | 0.00 | 94 | 1011.8 | |
| 20260510031547 | 9 | 0.0 | 0.0 | 0.00 | 0.00 | 0.00 | 95 | 1011.7 | |
| 20260510031516 | 9 | 0.0 | 0.0 | 0.00 | 0.00 | 0.00 | 95 | 1011.7 | |
| 20260510031016 | 9 | 0.0 | 0.0 | 0.00 | 0.00 | 0.00 | 95 | 1011.8 | |
| 20260510030516 | 9 | 0.0 | 0.0 | 0.00 | 0.00 | 0.00 | 95 | 1011.8 | |
| 20260510030016 | 9 | 0.0 | 0.0 | 0.00 | 0.00 | 0.00 | 94 | 1011.7 | |
| 20260510025516 | 9 | 0.0 | 0.0 | 0.00 | 0.00 | 0.00 | 94 | 1011.7 | |
| 20260510025016 | 9 | 0.0 | 0.0 | 0.00 | 0.00 | 0.00 | 94 | 1011.7 | |
| 20260510024516 | 9 | 0.0 | 0.0 | 0.00 | 0.00 | 0.00 | 94 | 1011.6 | |
| 20260510024016 | 9 | 0.0 | 0.0 | 0.00 | 0.00 | 0.00 | 94 | 1011.6 | |
| 20260510023516 | 9 | 0.0 | 0.0 | 0.00 | 0.00 | 0.00 | 94 | 1011.6 | |
| 20260510023016 | 10 | 0.0 | 0.0 | 0.00 | 0.00 | 0.00 | 94 | 1011.5 | |
| 20260510022556 | 10 | 0.0 | 0.0 | 0.00 | 0.00 | 0.00 | 94 | 1011.6 | |
| 20260510022516 | 10 | 0.0 | 0.0 | 0.00 | 0.00 | 0.00 | 94 | 1011.6 | |
| 20260510022016 | 10 | 0.0 | 0.0 | 0.00 | 0.00 | 0.00 | 94 | 1011.6 | |
| 20260510021646 | 10 | 0.0 | 0.0 | 0.00 | 0.00 | 0.00 | 94 | 1011.7 | |
| 20260510021516 | 10 | 0.0 | 0.0 | 0.00 | 0.00 | 0.00 | 94 | 1011.7 | |
| 20260510021016 | 10 | 0.0 | 0.0 | 0.00 | 0.00 | 0.00 | 94 | 1011.7 | |
| 20260510020516 | 10 | 0.0 | 0.0 | 0.00 | 0.00 | 0.00 | 94 | 1011.6 | |
| 20260510020016 | 10 | 0.0 | 0.0 | 0.00 | 0.00 | 0.00 | 94 | 1011.6 | |
| 20260510015824 | 10 | 0.0 | 0.0 | 0.00 | 0.00 | 0.00 | 94 | 1011.7 | |
| 20260510015553 | 10 | 0.0 | 0.0 | 0.00 | 0.00 | 0.00 | 94 | 1011.7 | |
| 20260510015516 | 10 | 0.0 | 0.0 | 0.00 | 0.00 | 0.00 | 94 | 1011.7 | |
| 20260510015016 | 10 | 0.0 | 0.0 | 0.00 | 0.00 | 0.00 | 94 | 1011.7 | |
| 20260510014518 | 10 | 0.0 | 0.0 | 0.00 | 0.00 | 0.00 | 94 | 1011.8 | |
| 20260510014018 | 10 | 0.0 | 0.0 | 0.00 | 0.00 | 0.00 | 94 | 1011.6 | |
| 20260510013518 | 10 | 0.0 | 0.0 | 0.00 | 0.00 | 0.00 | 93 | 1011.5 | |
| 20260510013018 | 11 | 0.0 | 0.0 | 0.00 | 0.00 | 0.00 | 94 | 1011.6 | |
| 20260510012558 | 11 | 0.0 | 0.0 | 0.00 | 0.00 | 0.00 | 94 | 1011.6 | |
| 20260510012518 | 11 | 0.0 | 0.0 | 0.00 | 0.00 | 0.00 | 94 | 1011.6 | |
| 20260510012018 | 11 | 0.0 | 0.0 | 0.00 | 0.00 | 0.00 | 93 | 1011.5 | |
| 20260510011518 | 11 | 0.0 | 0.0 | 0.00 | 0.00 | 0.00 | 93 | 1011.5 | |
| 20260510011018 | 11 | 0.0 | 0.0 | 0.00 | 0.00 | 0.00 | 93 | 1011.5 | |
| 20260510010518 | 11 | 0.0 | 0.0 | 0.00 | 0.00 | 0.00 | 93 | 1011.5 | |
| 20260510010018 | 11 | 0.0 | 0.0 | 0.00 | 0.00 | 0.00 | 93 | 1011.4 | |
| 20260510005518 | 11 | 0.0 | 0.0 | 0.00 | 0.00 | 0.00 | 93 | 1011.4 | |
| 20260510005018 | 11 | 0.0 | 0.0 | 0.00 | 0.00 | 0.00 | 93 | 1011.3 | |
| 20260510004830 | 11 | 0.0 | 0.0 | 0.00 | 0.00 | 0.00 | 93 | 1011.2 | |
| 20260510004518 | 11 | 0.0 | 0.0 | 0.00 | 0.00 | 0.00 | 93 | 1011.2 | |
| 20260510004018 | 11 | 0.0 | 0.0 | 0.00 | 0.00 | 0.00 | 93 | 1011.2 | |
| 20260510003518 | 11 | 0.0 | 0.0 | 0.00 | 0.00 | 0.00 | 93 | 1011.2 | |
| 20260510003018 | 11 | 0.0 | 0.0 | 0.00 | 0.00 | 0.00 | 92 | 1011.2 | |
| 20260510002518 | 12 | 0.0 | 0.0 | 0.00 | 0.00 | 0.00 | 92 | 1011.2 | |
| 20260510002018 | 12 | 0.0 | 0.0 | 0.00 | 0.00 | 0.00 | 92 | 1011.1 | |
| 20260510001518 | 12 | 0.0 | 0.0 | 0.00 | 0.00 | 0.00 | 92 | 1011.2 | |
| 20260510001018 | 12 | 0.0 | 0.0 | 0.00 | 0.00 | 0.00 | 92 | 1011.2 | |
| 20260510000518 | 12 | 0.0 | 0.0 | 0.00 | 0.00 | 0.00 | 92 | 1011.1 | |
| 20260510000018 | 12 | 0.0 | 0.0 | 0.00 | 0.00 | 0.00 | 92 | 1011.1 | |
| 20260509235518 | 12 | 0.0 | 0.0 | 0.00 | 0.00 | 0.00 | 92 | 1011.0 | |
| 20260509235018 | 13 | 0.0 | 0.0 | 0.00 | 0.00 | 0.00 | 92 | 1011.0 | |
| 20260509234518 | 13 | 0.0 | 0.0 | 0.00 | 0.00 | 0.00 | 92 | 1011.1 | |
| 20260509234018 | 13 | 0.0 | 0.0 | 0.00 | 0.00 | 0.00 | 92 | 1011.1 | |
| 20260509233518 | 13 | 0.0 | 0.0 | 0.00 | 0.00 | 0.00 | 92 | 1011.2 | |
| 20260509233017 | 13 | 0.0 | 0.0 | 0.00 | 0.00 | 0.00 | 93 | 1011.1 | |
| 20260509232518 | 13 | 0.0 | 0.0 | 0.00 | 0.00 | 0.00 | 92 | 1011.1 | |
| 20260509232108 | 13 | 0.0 | 1.6 | 0.00 | 0.00 | 0.00 | 92 | ||
| 20260509232017 | 13 | 0.0 | 1.6 | 0.00 | 0.00 | 0.00 | 92 | ||
| 20260509231518 | 13 | 0.0 | 1.6 | 0.00 | 0.00 | 0.00 | 92 | ||
| 20260509231017 | 13 | 0.0 | 3.2 | 0.00 | 0.00 | 0.00 | 92 | ||
| 20260509230730 | 13 | 0.0 | 3.2 | 0.00 | 0.00 | 0.00 | 92 | ||
| 20260509230518 | 13 | 0.0 | 3.2 | 0.00 | 0.00 | 0.00 | 92 | ||
| 20260509230018 | 13 | 0.0 | 3.2 | 0.00 | 0.00 | 0.00 | 92 | ||
| 20260509225818 | 13 | 0.0 | 3.2 | 0.00 | 0.00 | 0.00 | 92 |